This demonstration page uses our WeatherBlox Daily Observations layout. Learn more.

Left ArrowRight Arrow

Hourly Observations for October 31, 2021

Temp ( °F °C ) Dew Point ( °F °C ) Humidity (%) Winds ( mph kmh ) Pressure ( in mb ) Visibility ( mi km ) Precip ( " mm )
12:53 am 00:53 Cloudy 54 12.2 51 10.6 90 90 WNW 8 13 29.81 1009 10 16 0.00 0.00
1:53 am 01:53 Cloudy 54 12.2 50 10 87 87 WNW 8 13 29.82 1010 10 16 0.00 0.00
2:53 am 02:53 Cloudy 54 12.2 50 10 87 87 W 6 9 29.82 1010 10 16 0.00 0.00
3:18 am 03:18 Partly Cloudy 53 11.7 50 10 89 89 WNW 7 11 29.83 1010 10 16 0.00 0.00
3:53 am 03:53 Mostly Cloudy 53 11.7 50 10 89 89 WNW 6 9 29.83 1010 10 16 0.00 0.00
4:53 am 04:53 Cloudy 53 11.7 50 10 89 89 WNW 7 11 29.85 1011 10 16 0.00 0.00
5:53 am 05:53 Cloudy 54 12.2 50 10 87 87 WNW 10 17 29.87 1011 10 16 0.00 0.00
6:53 am 06:53 Mostly Cloudy 53 11.7 50 10 89 89 WNW 7 11 29.89 1012 10 16 0.00 0.00
7:53 am 07:53 Cloudy 53 11.7 50 10 89 89 W 5 7 29.91 1013 10 16 0.00 0.00
8:53 am 08:53 Cloudy 54 12.2 50 10 87 87 WNW 7 11 29.94 1014 10 16 0.00 0.00
9:53 am 09:53 Mostly Cloudy 56 13.3 49 9.4 77 77 NNW 12 19 29.96 1015 10 16 0.00 0.00
10:53 am 10:53 Cloudy 58 14.4 49 9.4 72 72 NW 8 13 29.98 1015 10 16 0.00 0.00
11:05 am 11:05 Cloudy 57 13.9 48 8.9 72 72 NW 12 19 30.00 1016 10 16 0.00 0.00
11:53 am 11:53 Cloudy 59 15 47 8.3 64 64 N 12 19 30.00 1016 10 16 0.00 0.00
12:08 pm 12:08 Cloudy 58 14.4 47 8.3 67 67 NW 15 24 30.02 1016 10 16 0.00 0.00
12:53 pm 12:53 Cloudy 59 15 48 8.9 67 67 NW 8 13 30.01 1016 10 16 0.00 0.00
1:53 pm 13:53 Cloudy 59 15 47 8.3 64 64 NW 10 17 30.01 1016 10 16 0.00 0.00
2:26 pm 14:26 Cloudy 60 15.6 48 8.9 65 65 NNW 13 20 30.00 1016 10 16 0.00 0.00
2:53 pm 14:53 Cloudy 60 15.6 47 8.3 62 62 NW 10 17 30.00 1016 10 16 0.00 0.00
3:50 pm 15:50 Mostly Cloudy 59 15 46 8 63 63 NNW 12 19 30.00 1016 10 16 0.00 0.00
3:53 pm 15:53 Mostly Cloudy 61 16.1 48 8.9 63 63 N 13 20 30.00 1016 10 16 0.00 0.00
4:53 pm 16:53 Mostly Cloudy 61 16.1 48 8.9 63 63 N 7 11 30.01 1016 10 16 0.00 0.00
5:02 pm 17:02 Partly Cloudy 61 16.1 48 8.9 63 63 NNW 8 13 30.02 1017 10 16 0.00 0.00
5:53 pm 17:53 Sunny 60 15.6 48 8.9 65 65 NNW 7 11 30.02 1017 10 16 0.00 0.00
6:53 pm 18:53 Mostly Clear 57 13.9 47 8.3 69 69 NNW 3 6 30.04 1017 10 16 0.00 0.00
7:53 pm 19:53 Clear 52 11.1 49 9.4 89 89 Calm 30.06 1018 10 16 0.00 0.00
8:53 pm 20:53 Clear 50 10 48 8.9 93 93 W 3 6 30.09 1019 10 16 0.00 0.00
9:53 pm 21:53 Clear 51 10.6 48 8.9 89 89 Calm 30.10 1019 10 16 0.00 0.00
10:53 pm 22:53 Clear 51 10.6 47 8.3 86 86 Calm 30.11 1020 10 16 0.00 0.00
11:53 pm 23:53 Clear 50 10 45 7.2 83 83 Calm 30.11 1020 10 16 0.00 0.00

Powered by AerisWeather